Location: Newark
(31.5350°N, 35.0986°E)
Time: 13:08:16
(UTC+00:00)

Explorer 7 - Pass Details

Date: 22 October 2019
Orbit: 485 x 680 km, 50.3° (Epoch: 21 November)

Event Time Altitude Azimuth Distance (km) Brightness Sun altitude
Rises 06:50:16 0° 216° (SW) 2,616 10.4 33.7°
Reaches altitude 10° 06:52:31 10° 212° (SSW) 1,708 9.6 34.1°
Maximum altitude 06:56:17 54° 134° (SE) 598 8.7 34.7°
Drops below altitude 10° 06:59:57 10° 56° (NE) 1,666 9.5 35.2°
Sets 07:02:08 0° 52° (NE) 2,545 10.3 35.6°
